Hourly Weather Chambley-Bussières

Today, 12 June, Saturday

Time Temperature Precipitation Wind Pressure Humidity
00:00 +18°C° 0 mm 1 mps 741 mmHg 91%
01:00 +16°C° 0 mm 1 mps 741 mmHg 92%
02:00 +16°C° 0 mm 1 mps 741 mmHg 93%
03:00 +16°C° 0 mm 1 mps 740 mmHg 93%
04:00 +16°C° 0 mm 1 mps 741 mmHg 93%
05:00 +17°C° 0 mm 2 mps 741 mmHg 92%
06:00 +18°C° 0 mm 2 mps 742 mmHg 91%
07:00 +19°C° 0 mm 3 mps 742 mmHg 85%
08:00 +20°C° 0 mm 3 mps 742 mmHg 79%
09:00 +21°C° 0 mm 4 mps 742 mmHg 73%
10:00 +21°C° 0 mm 4 mps 742 mmHg 71%
11:00 +22°C° 0 mm 4 mps 742 mmHg 69%
12:00 +22°C° 0 mm 5 mps 742 mmHg 68%
13:00 +22°C° 0 mm 5 mps 742 mmHg 70%
14:00 +22°C° 0 mm 5 mps 742 mmHg 72%
15:00 +22°C° 0 mm 5 mps 742 mmHg 74%
16:00 +21°C° 0.1 mm 4 mps 743 mmHg 77%
17:00 +21°C° 0.1 mm 4 mps 743 mmHg 80%
18:00 +20°C° 0.1 mm 3 mps 743 mmHg 83%
19:00 +18°C° 0 mm 3 mps 743 mmHg 86%
20:00 +17°C° 0 mm 2 mps 744 mmHg 88%
21:00 +15°C° 0 mm 2 mps 744 mmHg 90%
22:00 +14°C° 0 mm 2 mps 744 mmHg 90%
23:00 +14°C° 0 mm 2 mps 744 mmHg 89%

Tomorrow, 13 June, Sunday

Time Temperature Precipitation Wind Pressure Humidity
00:00 +13°C° 0 mm 2 mps 744 mmHg 89%
01:00 +12°C° 0 mm 2 mps 744 mmHg 90%
02:00 +10°C° 0 mm 2 mps 744 mmHg 91%
03:00 +10°C° 0 mm 2 mps 744 mmHg 92%
04:00 +10°C° 0 mm 2 mps 745 mmHg 88%
05:00 +12°C° 0 mm 2 mps 745 mmHg 84%
06:00 +13°C° 0 mm 2 mps 745 mmHg 81%
07:00 +15°C° 0 mm 2 mps 746 mmHg 74%
08:00 +16°C° 0 mm 3 mps 746 mmHg 68%
09:00 +18°C° 0 mm 3 mps 746 mmHg 61%
10:00 +19°C° 0 mm 3 mps 746 mmHg 58%
11:00 +20°C° 0 mm 3 mps 746 mmHg 56%
12:00 +21°C° 0 mm 3 mps 745 mmHg 53%
13:00 +21°C° 0 mm 3 mps 745 mmHg 54%
14:00 +22°C° 0 mm 3 mps 745 mmHg 55%
15:00 +22°C° 0 mm 3 mps 745 mmHg 55%
16:00 +21°C° 0 mm 3 mps 744 mmHg 61%
17:00 +21°C° 0 mm 3 mps 744 mmHg 68%
18:00 +20°C° 0 mm 3 mps 744 mmHg 74%
19:00 +18°C° 0 mm 3 mps 744 mmHg 75%
20:00 +16°C° 0 mm 3 mps 744 mmHg 76%
21:00 +14°C° 0 mm 2 mps 744 mmHg 77%
22:00 +14°C° 0 mm 2 mps 744 mmHg 77%
23:00 +13°C° 0 mm 2 mps 743 mmHg 77%

Day after tomorrow, 14 June, Monday

Time Temperature Precipitation Wind Pressure Humidity
00:00 +12°C° 0 mm 2 mps 743 mmHg 77%
01:00 +12°C° 0 mm 2 mps 743 mmHg 78%
02:00 +10°C° 0 mm 2 mps 743 mmHg 80%
03:00 +10°C° 0 mm 2 mps 743 mmHg 81%
04:00 +11°C° 0 mm 3 mps 743 mmHg 80%
05:00 +12°C° 0 mm 3 mps 742 mmHg 78%
06:00 +14°C° 0 mm 4 mps 742 mmHg 76%
07:00 +17°C° 0 mm 4 mps 742 mmHg 72%
08:00 +18°C° 0 mm 4 mps 742 mmHg 67%
09:00 +20°C° 0 mm 4 mps 742 mmHg 62%
10:00 +21°C° 0 mm 4 mps 742 mmHg 60%
11:00 +23°C° 0 mm 4 mps 742 mmHg 58%
12:00 +25°C° 0 mm 3 mps 742 mmHg 56%
13:00 +25°C° 0 mm 3 mps 742 mmHg 56%
14:00 +25°C° 0 mm 3 mps 741 mmHg 57%
15:00 +26°C° 0 mm 3 mps 741 mmHg 57%
16:00 +25°C° 0 mm 2 mps 741 mmHg 63%
17:00 +25°C° 0 mm 2 mps 741 mmHg 69%
18:00 +24°C° 0 mm 2 mps 740 mmHg 74%
19:00 +22°C° 0 mm 1 mps 740 mmHg 77%
20:00 +20°C° 0 mm 1 mps 741 mmHg 80%
21:00 +18°C° 0 mm 1 mps 741 mmHg 83%
22:00 +18°C° 0 mm 1 mps 741 mmHg 84%
23:00 +16°C° 0 mm 1 mps 740 mmHg 85%

15 June, Tuesday

Time Temperature Precipitation Wind Pressure Humidity
00:00 +15°C° 0 mm 1 mps 740 mmHg 86%
01:00 +15°C° 0 mm 1 mps 740 mmHg 86%
02:00 +15°C° 0 mm 1 mps 740 mmHg 87%
03:00 +14°C° 0 mm 1 mps 740 mmHg 87%
04:00 +15°C° 0 mm 1 mps 740 mmHg 85%
05:00 +18°C° 0 mm 1 mps 740 mmHg 83%
06:00 +19°C° 0 mm 1 mps 741 mmHg 81%
07:00 +20°C° 0 mm 1 mps 741 mmHg 76%
08:00 +21°C° 0 mm 2 mps 741 mmHg 71%
09:00 +24°C° 0 mm 2 mps 741 mmHg 66%
10:00 +25°C° 0 mm 2 mps 741 mmHg 63%
11:00 +26°C° 0 mm 2 mps 740 mmHg 60%
12:00 +27°C° 0 mm 2 mps 740 mmHg 57%
13:00 +27°C° 0 mm 2 mps 740 mmHg 57%
14:00 +27°C° 0 mm 2 mps 740 mmHg 58%
15:00 +27°C° 0 mm 1 mps 740 mmHg 58%
16:00 +26°C° 0 mm 1 mps 739 mmHg 64%
17:00 +25°C° 0 mm 1 mps 739 mmHg 69%
18:00 +25°C° 0 mm 1 mps 739 mmHg 75%
19:00 +23°C° 0 mm 1 mps 739 mmHg 78%
20:00 +21°C° 0 mm 1 mps 739 mmHg 80%
21:00 +20°C° 0 mm 1 mps 739 mmHg 83%
22:00 +19°C° 0 mm 1 mps 739 mmHg 84%
23:00 +19°C° 0 mm 1 mps 738 mmHg 85%

16 June, Wednesday

Time Temperature Precipitation Wind Pressure Humidity
00:00 +18°C° 0 mm 1 mps 738 mmHg 86%
01:00 +16°C° 0 mm 1 mps 738 mmHg 86%
02:00 +16°C° 0 mm 1 mps 738 mmHg 87%
03:00 +16°C° 0 mm 1 mps 738 mmHg 87%
04:00 +18°C° 0 mm 1 mps 738 mmHg 85%
05:00 +19°C° 0 mm 1 mps 738 mmHg 83%
06:00 +20°C° 0 mm 1 mps 738 mmHg 82%
07:00 +22°C° 0 mm 1 mps 738 mmHg 77%
08:00 +24°C° 0 mm 2 mps 738 mmHg 73%
09:00 +25°C° 0 mm 2 mps 738 mmHg 68%
10:00 +27°C° 0 mm 2 mps 737 mmHg 65%
11:00 +28°C° 0 mm 2 mps 737 mmHg 62%
12:00 +29°C° 0 mm 2 mps 737 mmHg 59%
13:00 +29°C° 0 mm 2 mps 737 mmHg 59%
14:00 +29°C° 0 mm 2 mps 736 mmHg 59%
15:00 +30°C° 0 mm 2 mps 736 mmHg 59%
16:00 +29°C° 0 mm 2 mps 736 mmHg 65%
17:00 +28°C° 0 mm 2 mps 735 mmHg 71%
18:00 +28°C° 0 mm 2 mps 735 mmHg 77%
19:00 +26°C° 0 mm 2 mps 735 mmHg 80%
20:00 +24°C° 0 mm 2 mps 735 mmHg 82%
21:00 +23°C° 0 mm 2 mps 735 mmHg 85%
22:00 +22°C° 0.1 mm 1 mps 735 mmHg 86%
23:00 +22°C° 0.1 mm 1 mps 735 mmHg 87%

17 June, Thursday

Time Temperature Precipitation Wind Pressure Humidity
00:00 +21°C° 0.1 mm 1 mps 735 mmHg 89%
01:00 +21°C° 0.3 mm 1 mps 735 mmHg 90%
02:00 +21°C° 0.3 mm 1 mps 735 mmHg 91%
03:00 +20°C° 0.3 mm 1 mps 735 mmHg 92%
04:00 +20°C° 0.1 mm 2 mps 735 mmHg 91%
05:00 +21°C° 0.1 mm 2 mps 735 mmHg 91%
06:00 +21°C° 0.1 mm 3 mps 736 mmHg 90%
07:00 +22°C° 0 mm 3 mps 736 mmHg 85%
08:00 +23°C° 0 mm 4 mps 736 mmHg 80%
09:00 +26°C° 0 mm 4 mps 736 mmHg 75%
10:00 +26°C° 0 mm 4 mps 736 mmHg 72%
11:00 +27°C° 0 mm 4 mps 736 mmHg 69%
12:00 +28°C° 0 mm 4 mps 736 mmHg 66%
13:00 +29°C° 0 mm 3 mps 736 mmHg 65%
14:00 +29°C° 0 mm 3 mps 736 mmHg 63%
15:00 +29°C° 0 mm 2 mps 736 mmHg 61%
16:00 +29°C° 0 mm 2 mps 735 mmHg 66%
17:00 +28°C° 0 mm 2 mps 735 mmHg 71%
18:00 +28°C° 0 mm 1 mps 734 mmHg 76%
19:00 +26°C° 0.1 mm 2 mps 734 mmHg 78%
20:00 +25°C° 0.1 mm 2 mps 734 mmHg 80%
21:00 +24°C° 0.1 mm 3 mps 734 mmHg 82%
22:00 +22°C° 0.5 mm 3 mps 734 mmHg 83%
23:00 +22°C° 0.5 mm 3 mps 734 mmHg 84%
Show more

We Need Your Consent

Meteoprog and our Service Providers may store and access personal data such as cookies, device identifiers or other similar technologies on your device and process such data to personalise content and ads, as well as provide social media features and to analyse the traffic.

  • Store and/or access information on your device

    Cookies, device identifiers or other information can be stored or accessed on your device for the purposes indicated above.

  • Personalised ads and content, ad and content measurement, audience insights, and products development

    Ads and content can be personalised based on a profile. More data can be added to better personalise ads and content. Ad and content performance can be measured. Insights about the audience who saw the ads and content can be derived. Such data can be used to develop or improve user’s experience, systems and software.

By clicking ‘I Agree’ you will allow the use of indicated cookies, device identifiers, web beacons or other similar technologies. Your settings can be changed in the browser on your device.

For certain purposes, legitimate interests may be relied on, rather than consent. You can read more about this in our Privacy and Cookie Policy.